SL-16 DEB, 22493

Orbit data source: Space-Track

SL-16 DEB, 22493 is space debris in LEO originally from a launch on Fri, 25 Dec 1992 UTC launched from the Tyuratam Missile And Space Complex (TTMTR). Debris objects in space refer to the collection of defunct objects orbiting the Earth. Examples of debris include non-operational satellites, rocket bodies, and fragments generated from explosions, collisions, or faulty payload assembly.

Loading next visibility...
Identifier
22493, 1992-093GC
Orbit
LEO
Country
Flag of CISCIS
Related business
Manufacturer
Unknown
Mission
Spacecraft
Bus & Motor
Unknown
Mass
Unknown
Launch date (UTC)
1992-12-25 (33 years ago)
Launch vehicle
Unknown
Launch site
Tyuratam Missile And Space Complex (TTMTR)
Object type
Payload
Rocket body
Debris
Shape & HBR
Unknown shape, 0.1 m
Radar Cross Section
Small (<0.1 m²)

Expand to show TLE details & history
Last TLE update: 23 hours ago

TLE from 23 hours ago
0 SL-16 DEB
1 22493U 92093GC  25349.86950485  .00001297  00000-0  30906-3 0  9991
2 22493  71.0387 264.7341 0092807 115.6271 245.4498 14.53145438744384
Epoch: 2025-12-15T20:52Z
TLE epoch observation values (Epoch: 2025-12-15T20:52:05.219Z)
Latitude
0.0001°
Longitude
-133.04949°
Altitude
745.7 km
Speed
7.467 km/s
True Right ascension
17h 38m 56s
True Declination
0° 00' 00"
Sunlit
Object was in daylight at epoch
Visualization orbit readout
Latitude
Unknown
Longitude
Unknown
Altitude
Unknown
Speed
Unknown
Apparent Right ascension
Unknown
Apparent Declination
Unknown
Sunlit
N/A
Visualization observer readout
Local Sidereal Time
18:34:22
Azimuth
Unknown
Elevation
Unknown
Doppler factor
Unknown
Orbital elements
Apogee altitude
779.09 km
Perigee altitude
647.464 km
Semi-major axis
7,091.414 km
Eccentricity
0.00928
Inclination
71.0387°
RAAN
264.7341°
Arg. of periapsis
115.6271°
True anomaly
244.48714°
Mean anomaly
245.4498°
Eccentric anomaly
244.968°
Mean motion
3.63449 °/min
Orbital period
99.05 mins
BSTAR
0.00030906
Loading maneuver chart data...
Computing Atmospheric mass density...
Loading historical data...
Loading historical data...
Loading historical data...
Loading historical data...
Loading historical data...
Loading historical data...
Loading historical data...

Documentation

Showing up to 5 results
|